Theta_e
355 354 352 353 353 353 353 353 351 350 350 348 349 347 343 344 341 341 340 343 346 350 352 350 359 358 357 357 359 360 360 359 361 361 361 358 356 350 352 353 353 353 353 357 358 358 356 353 355 354 355 355 354 353 352 351 350 347 346 345 343 343 342 339 335 335 337 337 336 335 335 335 335 335
356 357 355 355 354 356 355 354 354 353 353 350 349 349 347 348 344 342 340 341 344 351 350 352 355 359 360 359 360 359 359 357 360 360 360 360 356 348 351 352 352 352 352 352 354 355 355 352 351 351 351 352 353 352 352 350 348 346 345 344 344 343 337 328 328 334 336 336 337 337 336 336 335 335
357 356 354 354 354 354 354 355 354 355 353 352 351 350 348 349 348 346 346 340 349 347 352 352 358 358 357 358 358 357 358 359 359 360 360 360 354 353 353 352 352 352 351 351 353 352 353 354 350 348 350 351 353 353 352 349 348 346 345 343 342 340 335 334 337 337 336 336 336 336 336 336 336 335
357 356 355 356 356 356 354 353 353 353 355 355 352 351 349 349 349 350 347 344 344 352 352 357 358 358 355 356 355 356 357 359 359 360 361 359 356 356 354 349 348 351 351 351 351 351 352 353 349 348 348 351 353 354 350 348 347 344 340 340 340 339 338 339 337 337 336 336 336 336 335 335 334 334
356 357 356 357 356 355 352 353 352 352 352 354 352 351 349 348 349 350 348 345 345 351 353 356 357 356 355 354 356 355 355 356 358 359 359 358 355 353 352 350 346 348 349 350 349 349 348 348 349 349 349 350 353 352 350 346 343 341 340 337 332 337 339 339 337 336 336 335 336 335 335 334 334 333
353 355 355 355 354 355 354 354 353 352 350 350 351 351 349 349 348 351 349 347 346 346 351 355 356 355 354 354 353 354 353 354 356 357 358 357 352 349 348 346 344 343 345 345 344 344 344 345 346 349 351 351 349 346 343 341 338 337 337 336 336 336 338 338 337 336 336 335 335 335 335 334 333 333
354 353 354 353 354 354 353 354 354 354 352 351 351 350 351 350 350 350 351 350 348 347 350 351 352 353 351 353 351 351 354 354 355 354 353 352 350 347 345 343 341 340 341 340 339 338 338 339 340 341 341 341 340 338 335 333 332 333 330 328 329 331 330 332 336 337 336 336 335 334 334 334 333 333
353 353 353 352 353 354 353 354 355 355 353 352 352 351 352 352 351 352 354 352 351 351 349 351 352 352 351 350 351 355 353 353 353 352 350 348 345 344 342 340 337 335 335 334 333 332 332 331 332 332 333 333 331 328 327 325 324 324 324 324 325 326 326 326 329 331 331 332 334 335 336 335 334 333
354 354 353 353 354 354 353 353 353 355 354 353 354 352 352 352 352 352 353 355 354 352 351 351 352 351 349 348 349 352 352 350 350 351 349 346 345 342 340 337 333 332 332 331 331 330 329 328 327 327 326 326 326 325 324 323 323 321 320 320 320 321 322 322 322 323 324 326 328 329 330 332 333 334
355 354 354 354 355 354 353 354 355 355 355 354 353 353 353 354 354 353 353 355 355 354 354 352 350 348 348 346 347 349 349 348 347 348 349 348 346 342 337 335 333 331 328 327 326 326 326 326 326 325 324 324 324 324 324 323 321 319 317 317 319 320 320 320 321 320 320 321 323 326 329 330 331 333
354 354 354 355 355 355 355 353 354 354 354 353 353 355 354 354 352 354 353 354 354 353 352 350 350 349 347 347 349 347 347 347 349 346 345 344 344 340 336 332 331 331 329 330 329 328 327 326 324 322 322 321 321 321 322 321 321 320 318 317 319 320 320 319 320 319 319 319 318 318 321 328 331 331
353 354 354 354 355 356 357 356 357 357 355 355 353 355 353 352 351 350 353 353 353 352 351 351 349 348 348 346 346 346 346 344 343 345 345 343 341 336 336 333 330 329 327 325 325 325 324 323 323 322 321 321 321 321 322 322 322 322 321 321 322 321 321 321 321 320 319 319 317 316 316 320 324 328
353 353 354 354 356 358 361 363 362 360 358 355 354 354 354 349 346 345 345 348 351 351 350 350 348 346 344 345 343 342 341 342 346 345 346 345 345 335 331 331 333 331 327 327 325 323 323 321 321 321 322 321 321 322 322 322 322 322 322 322 324 323 322 322 321 321 321 320 318 317 317 317 319 322
352 352 353 356 359 362 364 365 367 367 366 363 356 356 346 345 344 344 345 345 348 351 349 349 348 344 344 345 343 344 344 344 343 344 344 343 340 335 332 331 332 332 329 324 321 322 324 323 322 322 320 320 322 323 323 322 322 323 325 324 323 322 320 319 319 319 319 319 319 317 317 317 318 318
351 351 351 354 356 360 362 364 366 368 370 371 367 359 355 352 347 346 348 347 349 347 348 349 348 347 348 349 346 344 346 342 343 345 345 345 340 334 331 327 328 333 328 324 322 324 329 327 323 324 323 323 323 323 323 323 324 325 323 322 321 320 320 320 319 318 317 317 318 317 316 317 318 317
350 350 351 353 354 355 357 357 360 364 368 371 373 364 360 357 356 354 352 351 349 347 347 346 347 348 348 350 347 345 343 344 344 344 344 344 342 339 338 333 327 331 333 328 325 321 327 327 324 322 323 323 323 323 325 325 324 323 322 321 320 320 319 319 319 318 318 318 318 318 317 318 318 317
348 349 350 351 353 353 358 360 360 361 362 365 371 368 364 360 358 347 348 354 356 352 349 347 347 348 350 348 349 349 347 348 345 344 342 342 343 342 340 337 329 329 334 328 325 320 324 326 320 318 320 322 323 322 325 324 323 322 320 320 319 319 319 318 318 317 317 316 316 317 316 316 317 316
348 349 349 349 350 352 355 358 360 363 364 361 354 347 347 355 362 361 355 356 356 354 349 348 345 351 351 351 352 352 350 347 346 344 343 344 343 341 336 334 330 332 334 326 323 318 319 321 318 317 318 320 321 323 322 321 321 321 319 318 318 318 318 318 317 317 316 316 316 315 314 315 315 315
349 349 349 350 350 351 354 356 358 360 362 358 352 348 347 352 355 359 360 359 356 355 350 347 348 350 350 353 352 352 352 353 352 350 348 346 340 332 332 331 331 329 330 328 326 316 317 320 317 316 318 320 320 321 318 318 319 319 318 318 317 317 317 317 317 316 316 316 315 314 314 314 314 313
349 350 350 350 352 354 352 351 348 352 353 348 344 347 348 346 343 342 336 329 334 348 351 350 350 350 347 345 350 350 349 350 349 346 342 338 334 331 328 325 327 325 327 326 322 316 316 319 317 317 319 319 316 317 319 320 319 319 318 317 316 316 316 316 316 316 316 316 315 314 313 312 311 311
350 351 352 353 354 351 351 346 334 339 354 347 345 346 346 344 339 338 334 328 327 327 326 326 328 328 328 329 329 329 334 345 344 342 338 333 333 329 325 324 323 322 323 323 323 317 314 317 317 315 316 316 315 314 316 318 318 317 317 316 316 315 315 315 315 315 315 315 315 314 313 311 310 311
351 352 357 356 352 351 351 340 331 334 351 349 347 347 345 343 340 340 330 332 330 327 326 327 327 328 328 328 328 329 331 331 341 343 337 335 334 331 328 324 322 320 321 322 324 317 314 317 316 316 317 317 316 314 316 318 318 317 315 315 315 315 314 314 314 315 315 314 314 313 312 310 311 314
353 352 357 360 356 351 348 332 328 329 351 348 347 346 343 340 340 343 330 333 333 333 331 331 334 334 337 338 337 337 335 338 343 345 343 339 337 331 328 322 319 317 317 318 322 313 312 313 314 315 312 312 316 322 322 319 319 321 321 319 319 315 314 313 313 314 314 314 313 313 311 310 311 315
350 353 353 357 346 336 334 328 324 325 332 348 349 349 344 342 342 345 332 335 335 334 333 332 333 332 333 336 339 339 341 342 344 343 341 340 337 331 327 324 323 321 318 318 320 313 312 314 314 322 320 311 310 318 320 321 323 322 320 320 318 316 315 314 313 311 312 313 312 311 311 310 312 314
348 350 352 353 347 332 328 325 321 321 323 338 352 349 347 347 349 338 333 337 335 333 333 332 331 331 332 332 334 336 337 338 337 337 337 337 335 331 326 323 321 319 319 319 322 317 313 315 317 321 320 319 316 315 317 319 321 323 321 320 317 318 319 318 317 317 311 310 309 308 308 309 310 313
349 350 351 351 345 331 324 323 320 318 320 325 347 352 333 331 323 336 338 338 335 333 331 330 329 329 329 328 329 329 330 332 332 331 331 331 329 328 328 325 321 318 319 323 324 322 318 316 320 320 318 315 314 317 315 314 315 317 318 317 317 317 318 318 317 317 318 318 316 312 311 309 311 311
348 350 351 352 345 326 321 319 319 318 318 326 337 328 325 318 321 333 337 335 331 330 328 328 327 326 326 326 325 326 327 328 330 329 328 328 327 326 326 325 323 324 325 327 327 324 322 321 324 321 317 317 316 316 315 312 310 312 313 313 314 316 317 318 317 317 317 317 316 310 309 310 310 310
350 350 350 347 330 320 313 315 318 319 322 331 321 321 318 318 328 337 335 332 330 329 326 326 326 325 327 327 324 324 325 326 326 325 324 323 323 322 322 324 325 323 324 325 327 328 328 325 324 324 321 318 316 313 311 311 311 311 310 312 313 314 316 319 319 318 316 316 315 315 313 312 312 311
350 339 330 325 321 318 312 312 315 318 319 315 318 316 316 334 336 334 332 329 329 328 327 327 326 324 324 325 324 323 324 326 325 322 320 320 319 320 320 321 322 321 319 319 320 323 328 326 323 321 321 320 316 314 311 308 308 308 310 309 308 311 314 315 316 315 314 314 313 313 312 311 311 313
333 327 322 320 317 318 319 326 330 332 332 320 319 316 324 336 333 333 331 330 328 328 327 325 322 322 322 321 322 324 324 322 320 319 317 317 318 318 318 317 317 318 319 319 318 319 321 322 321 320 318 317 315 311 310 308 307 310 313 310 310 313 311 313 314 316 316 313 312 311 311 312 312 311
332 327 330 328 323 323 325 331 330 331 326 325 325 326 333 333 331 331 332 330 328 327 323 323 321 321 321 322 323 320 319 318 318 320 319 316 316 317 317 315 314 314 315 318 320 318 318 320 320 320 316 314 314 313 313 313 311 312 311 311 310 305 308 311 313 312 313 313 313 312 312 313 315 317
336 333 325 323 329 331 331 332 331 330 330 327 326 329 331 330 330 330 331 330 327 324 323 322 321 321 321 319 319 319 317 316 317 319 318 317 316 317 315 313 313 313 314 314 315 319 321 318 319 320 318 316 313 312 315 315 312 310 310 311 311 310 310 309 310 311 312 313 311 310 311 312 312 313
332 332 333 332 330 331 331 331 330 329 328 327 328 328 327 327 328 328 327 324 323 322 322 320 320 319 319 318 318 317 316 316 316 318 318 320 318 318 317 315 315 314 312 312 313 313 316 317 319 317 316 317 317 316 313 309 310 312 311 310 310 308 308 308 310 310 311 312 312 311 311 312 313 313
331 332 333 332 330 329 330 329 329 328 327 325 325 325 326 327 326 325 325 323 322 322 322 321 319 318 318 316 316 315 316 316 317 318 317 318 319 317 315 314 314 315 314 312 312 312 313 314 315 315 316 315 315 315 315 313 309 310 311 311 310 307 309 310 310 310 312 310 309 306 306 306 310 312
332 331 331 329 330 330 330 330 328 328 327 326 324 324 325 325 324 324 323 322 322 323 321 320 319 319 317 316 316 316 316 316 316 317 318 318 318 316 316 314 314 314 313 312 311 313 314 314 314 312 313 314 313 313 313 315 312 310 310 310 310 309 308 309 309 310 311 311 308 306 305 306 307 310
329 330 329 328 328 329 329 329 328 328 327 326 325 324 323 323 324 322 321 320 322 321 321 318 318 318 317 317 317 317 317 318 317 316 315 316 316 316 316 316 316 315 315 314 313 314 314 313 313 311 308 308 307 306 307 311 313 312 308 307 309 310 310 311 314 311 309 309 310 306 303 302 304 307
327 327 327 327 328 328 328 328 328 327 327 326 325 325 324 323 323 322 320 319 323 322 320 319 318 318 318 318 318 319 319 318 316 316 315 315 316 316 316 317 317 316 315 315 315 315 315 314 314 313 310 308 306 305 306 311 310 311 314 309 309 311 311 311 311 310 310 310 309 307 305 305 305 308
326 326 326 327 327 327 328 327 327 326 326 326 326 326 324 322 321 321 322 322 321 320 319 318 318 318 317 318 317 317 318 318 317 316 315 315 315 316 316 315 315 315 315 315 316 315 315 315 314 314 312 308 306 305 304 308 309 309 309 313 310 310 312 310 307 306 309 309 307 309 307 305 307 309
327 326 327 327 327 327 326 326 326 325 326 326 325 324 322 321 321 321 321 321 320 319 318 318 317 318 318 318 319 318 317 317 316 315 315 315 316 315 315 314 313 314 314 313 314 314 314 314 314 314 313 310 308 308 309 307 307 312 310 306 313 312 311 309 307 308 308 307 309 308 308 310 308 305
328 328 327 327 326 326 326 326 325 325 325 325 324 322 321 321 321 321 321 320 319 319 318 318 319 318 319 319 319 318 318 318 317 317 316 316 316 316 315 315 314 313 313 312 311 311 311 312 315 314 314 315 315 313 313 315 313 312 312 309 306 309 311 310 308 308 308 309 308 306 306 308 306 306
328 327 327 327 326 325 325 324 325 326 325 324 323 323 322 321 321 320 320 319 321 318 318 318 318 319 319 319 319 318 317 317 317 317 317 318 318 317 315 314 313 313 312 311 311 309 310 314 316 313 312 310 309 312 310 307 305 309 309 310 307 306 308 310 312 310 308 309 308 306 306 305 305 304
328 326 327 326 325 324 324 324 324 324 324 324 323 322 321 321 321 323 322 322 319 319 318 318 320 320 320 320 319 319 318 317 317 317 317 317 317 316 315 314 312 311 312 310 309 310 312 316 317 313 312 311 310 307 305 306 305 307 310 309 309 307 307 306 307 308 312 310 308 305 305 303 304 302
328 327 326 326 325 325 324 324 324 324 324 324 323 322 321 321 322 321 320 320 320 320 319 320 320 320 320 319 319 319 318 317 317 317 317 317 317 315 314 313 312 311 312 311 311 310 311 313 312 311 312 311 310 310 306 308 310 307 307 306 306 308 308 307 306 306 307 306 307 307 307 304 300 297
328 327 327 326 325 324 324 324 323 323 323 323 323 323 323 322 322 322 322 321 321 320 320 319 319 319 319 319 319 319 319 318 318 318 316 316 316 316 314 312 311 311 310 309 309 309 310 312 313 311 309 308 310 307 307 308 308 308 305 306 309 307 306 306 306 304 305 306 306 306 305 306 306 306
329 328 327 326 325 325 325 325 324 324 324 324 324 323 324 323 322 322 322 322 321 321 319 319 319 319 319 318 318 317 318 318 318 317 317 316 315 315 313 312 311 310 309 310 309 308 309 310 311 311 310 310 311 309 309 308 308 308 308 307 305 305 305 305 303 302 303 304 304 305 307 308 309 307
Wind_Speed
2 2 3 2 2 2 2 2 3 3 2 2 3 4 4 4 2 1 2 2 1 1 0 0 2 2 2 2 2 2 3 5 5 4 4 3 3 7 9 6 3 3 3 2 1 5 7 3 7 4 6 7 9 9 9 9 9 8 9 9 10 10 10 11 13 7 4 6 9 10 11 12 12 12
2 2 1 2 2 2 2 2 3 3 3 3 3 3 3 4 4 3 1 3 2 2 0 0 1 1 2 1 2 2 2 5 5 4 5 4 4 7 6 4 2 1 1 1 1 2 5 4 3 7 5 11 9 10 11 10 9 9 9 9 10 10 10 10 10 7 6 7 9 10 11 11 12 12
2 2 2 2 3 2 3 2 2 2 3 3 3 3 3 4 4 4 3 1 2 1 0 0 1 0 1 1 1 2 2 4 5 5 5 5 6 6 8 10 9 6 4 3 2 2 1 4 5 2 4 8 10 12 12 11 11 11 11 10 9 8 9 9 7 7 7 8 9 10 11 11 12 12
2 2 3 3 4 3 2 3 2 2 3 3 3 3 3 3 3 4 4 4 5 2 2 1 0 1 1 2 2 3 3 4 7 6 5 5 6 6 6 9 13 10 6 4 4 0 0 5 8 8 6 9 13 15 14 12 13 12 10 11 10 7 5 6 7 7 7 8 10 10 11 11 11 12
3 3 4 5 4 3 3 3 3 3 3 3 3 3 3 3 4 4 4 4 5 2 1 1 1 1 0 1 2 3 3 5 5 5 6 5 5 6 5 6 10 10 9 5 0 5 5 5 1 3 5 8 12 15 14 14 15 13 11 11 10 5 3 6 7 7 7 8 9 10 10 11 11 12
3 4 5 5 5 3 4 3 4 3 2 3 3 3 4 4 3 4 4 4 3 4 0 1 1 0 1 1 2 3 4 5 5 6 5 5 6 5 5 6 7 13 12 10 8 6 5 4 2 3 6 12 18 20 18 18 15 11 8 8 7 6 6 7 8 8 8 8 9 8 9 10 11 11
4 4 4 6 5 3 4 4 4 3 4 3 4 4 4 4 3 4 5 3 4 5 3 1 1 1 0 1 2 4 4 5 5 6 5 5 5 5 5 6 6 11 13 14 13 12 12 13 16 19 19 18 19 21 19 17 15 13 10 13 13 11 12 13 11 13 11 10 10 7 6 8 9 10
5 6 5 6 5 4 4 5 4 4 3 3 3 4 4 4 4 4 5 6 5 2 3 1 1 1 1 1 3 4 4 4 5 5 6 5 6 5 5 6 6 9 15 16 16 17 17 16 14 15 16 17 18 18 17 14 14 13 13 14 12 11 12 10 9 10 11 10 9 9 9 7 7 8
6 6 6 7 6 4 5 5 5 4 5 4 4 4 3 4 3 3 4 5 4 4 4 2 1 2 1 1 2 2 4 4 5 5 5 5 5 5 6 5 6 11 15 16 17 17 17 17 17 17 16 15 14 15 15 14 13 13 14 15 14 12 11 9 10 10 10 9 10 8 8 8 8 6
6 6 7 7 6 5 6 6 6 5 5 4 5 5 4 5 4 4 4 4 4 5 5 3 2 2 2 2 2 2 3 4 3 4 4 5 5 6 6 5 4 5 5 4 6 10 12 16 17 17 17 16 14 12 12 11 13 14 13 12 11 8 6 8 8 8 8 10 7 7 6 7 7 7
7 7 7 7 6 7 7 7 7 6 5 4 6 6 6 6 4 3 2 3 3 4 3 2 2 2 2 1 1 1 3 2 3 3 4 4 4 4 6 6 4 5 7 12 14 12 12 13 11 14 15 17 17 10 10 12 12 10 11 10 8 6 6 6 7 6 6 6 6 5 5 5 6 5
7 7 7 7 7 7 7 7 6 6 6 4 6 5 4 4 4 4 2 1 2 3 3 3 3 3 3 2 1 2 3 3 2 4 4 5 5 6 4 4 4 3 5 5 5 7 9 10 12 13 12 13 13 13 12 13 12 11 9 8 6 6 6 5 4 4 4 6 6 5 5 5 5 5
6 6 6 7 6 7 10 13 10 8 7 5 5 4 2 8 7 4 3 4 3 3 2 3 3 3 4 4 4 4 5 6 4 5 5 4 5 7 6 5 4 3 6 6 5 5 4 6 5 4 5 6 9 11 10 10 11 10 6 5 5 5 5 5 4 3 4 5 5 4 4 4 5 7
7 7 6 6 12 13 14 14 14 13 12 12 8 3 8 7 7 4 5 5 4 4 4 4 4 6 7 7 7 6 6 3 4 5 6 5 6 6 6 5 3 4 5 6 7 4 3 5 6 5 6 5 6 4 4 4 4 5 6 7 7 8 7 6 5 5 5 5 5 4 5 7 8 8
6 6 6 6 8 10 12 11 14 14 13 12 13 11 13 10 9 7 7 6 4 4 5 3 3 5 5 5 6 6 4 4 6 6 7 5 7 6 5 4 4 3 5 7 7 5 2 3 6 6 6 5 4 4 3 5 6 7 8 9 8 8 7 6 6 5 5 5 6 6 6 8 9 9
6 7 6 6 4 5 7 8 8 11 14 12 12 14 14 15 16 13 10 8 6 6 5 4 5 5 6 3 5 5 5 5 5 5 6 7 8 6 4 4 6 7 6 7 8 8 5 4 6 6 5 4 4 4 5 5 8 9 9 9 10 9 9 9 8 7 6 6 7 8 8 8 9 10
8 7 7 6 5 5 11 10 8 8 8 11 11 13 11 10 13 14 14 12 9 6 5 5 6 7 5 4 4 6 6 6 7 7 5 5 6 5 4 4 5 9 6 8 7 7 4 2 4 6 4 4 3 4 5 7 8 9 10 9 9 10 10 9 8 7 6 6 8 9 9 9 10 11
8 8 8 7 7 7 6 7 7 6 7 1 7 4 5 10 12 12 13 14 14 9 5 5 6 5 4 4 4 5 7 8 7 7 6 6 6 4 1 5 8 8 5 6 7 6 5 2 4 5 4 4 4 3 4 7 9 8 9 9 10 10 9 9 8 8 8 7 10 11 11 11 12 12
9 9 8 8 9 8 4 2 5 5 5 2 3 3 5 7 4 3 6 7 6 5 5 5 6 7 5 4 3 5 6 5 4 4 4 6 5 8 7 8 9 7 5 5 4 5 3 1 4 3 3 4 3 3 5 7 8 8 8 9 10 10 10 9 9 9 9 10 12 12 12 13 13 13
8 8 8 8 7 3 4 6 6 6 6 6 5 3 5 6 5 3 2 2 2 3 6 7 7 6 6 5 6 6 6 4 5 6 7 8 8 7 7 7 6 5 3 2 5 6 4 0 5 2 2 3 4 3 3 5 6 7 7 8 10 11 10 10 10 11 11 12 12 13 14 14 14 13
9 8 8 7 7 7 8 9 12 10 8 4 7 8 8 7 4 7 2 2 2 4 6 6 7 7 6 6 7 9 10 8 8 7 8 8 8 8 7 6 6 3 2 2 6 8 6 2 3 4 4 4 4 3 2 2 4 7 7 8 10 11 11 10 10 11 11 12 12 13 14 14 14 15
7 9 13 10 8 9 9 11 11 12 10 7 6 5 6 7 7 7 3 2 2 5 7 8 7 6 5 5 5 6 7 10 9 8 8 8 7 6 7 6 5 3 2 2 3 7 6 5 5 7 6 5 3 2 1 2 3 5 6 7 9 11 11 10 10 11 12 13 13 14 14 14 13 8
7 7 9 14 11 10 10 11 10 8 4 6 7 8 7 8 9 9 7 5 5 4 4 3 4 4 4 4 4 5 7 9 5 2 5 9 8 8 6 8 7 4 0 4 5 6 5 7 5 7 7 4 1 0 1 2 1 2 3 3 6 10 12 10 9 9 11 13 13 14 14 12 10 7
8 8 7 9 14 15 15 8 9 10 15 10 10 8 9 8 12 7 8 6 4 5 3 3 3 3 1 1 2 4 7 6 4 4 6 7 7 7 8 8 6 4 5 6 6 6 5 6 7 2 1 7 6 4 1 2 1 1 3 3 4 5 8 9 8 8 8 10 12 12 12 11 9 7
9 8 8 7 10 14 13 13 17 18 18 15 9 10 10 12 9 7 7 7 8 5 4 4 4 3 3 4 5 3 2 3 3 4 3 3 4 7 7 6 4 4 3 7 10 6 7 7 7 4 3 2 5 6 2 2 2 1 2 2 4 3 3 4 4 4 6 7 7 7 6 5 5 7
9 9 9 8 11 14 13 15 16 17 17 18 12 12 16 10 10 9 6 6 5 4 5 4 4 4 5 6 6 5 4 3 4 4 5 5 5 4 4 7 8 6 5 8 13 5 8 8 6 5 4 6 4 5 6 3 2 2 2 3 3 3 2 3 4 4 3 4 5 5 5 5 5 5
11 10 9 8 10 13 15 17 17 17 18 14 12 16 12 10 12 9 7 6 6 6 6 7 5 5 6 7 6 5 4 3 3 4 5 6 6 6 6 6 4 5 8 9 8 6 6 5 5 6 6 6 8 5 4 4 3 2 4 3 4 3 2 2 4 4 3 4 5 9 8 8 7 7
11 10 9 10 14 14 16 17 17 17 16 12 16 14 12 13 12 6 6 6 6 7 7 5 5 5 5 5 6 5 4 5 4 6 6 7 7 8 7 7 8 7 7 5 5 6 5 5 5 3 7 8 8 8 6 4 5 4 5 3 4 3 2 2 4 4 4 4 5 5 5 5 4 5
10 12 14 13 12 13 12 12 10 7 7 8 7 10 13 14 8 8 7 8 7 6 6 5 5 6 5 3 4 5 6 7 7 8 7 8 7 8 8 8 8 7 5 3 3 2 4 6 6 5 4 3 6 4 6 6 6 5 5 6 5 3 3 3 3 3 3 3 3 4 4 5 4 2
14 11 9 9 9 8 7 7 5 5 5 7 8 9 13 10 8 7 7 6 7 6 5 7 8 7 6 6 6 6 6 7 7 8 8 9 6 4 7 8 8 8 7 6 5 4 4 5 6 6 6 4 4 7 7 9 5 5 5 5 6 4 2 2 2 2 3 3 4 4 3 2 3 2
5 6 6 6 7 7 9 8 7 6 8 6 5 5 5 3 5 7 7 8 9 8 9 8 7 7 6 6 7 7 7 7 5 6 8 7 4 5 6 10 7 7 6 7 7 6 5 6 5 7 8 6 5 5 5 6 7 5 4 4 4 5 3 2 2 2 2 3 4 3 3 2 2 1
7 7 9 10 8 7 6 6 5 4 5 6 7 8 7 6 4 5 7 7 5 6 7 8 9 8 7 7 6 6 6 7 7 6 6 7 6 5 8 8 6 6 6 7 7 8 8 5 5 4 6 8 8 4 3 3 5 6 5 4 3 3 3 4 3 3 2 3 4 3 2 2 2 2
6 6 6 6 6 5 6 5 5 5 6 5 7 7 7 6 6 6 5 6 7 9 10 9 10 9 8 7 6 7 7 6 6 5 6 4 6 4 6 8 6 6 7 6 6 6 6 7 7 7 6 5 4 6 7 5 2 3 5 4 4 4 3 2 2 3 2 2 2 2 2 2 2 2
8 6 6 7 7 6 6 6 5 6 6 7 7 7 8 7 7 7 7 7 7 5 7 9 9 9 8 8 7 7 7 5 4 4 6 5 5 7 7 8 6 5 6 6 5 5 6 6 7 7 7 7 6 5 3 4 5 3 3 3 3 4 3 2 1 2 2 2 3 3 3 3 3 2
7 7 6 6 6 6 5 5 6 6 8 8 7 8 7 7 8 9 9 9 9 9 7 7 8 8 7 7 7 7 7 7 6 5 5 6 5 7 8 8 7 6 6 7 6 5 5 6 6 7 5 4 4 5 7 3 5 4 3 2 1 2 3 3 4 3 2 1 1 3 3 3 4 3
6 6 7 6 5 6 5 5 6 7 8 8 8 8 9 8 7 9 9 9 9 10 9 8 7 7 7 7 7 7 7 7 6 6 6 6 7 6 6 6 7 6 5 6 6 5 4 5 5 6 6 3 2 3 2 4 2 4 6 4 2 2 1 2 2 2 2 2 2 3 4 4 4 2
7 6 6 6 6 6 6 6 7 7 8 8 8 7 8 8 7 6 7 7 8 8 8 8 7 7 7 6 6 6 7 7 7 6 6 6 6 7 7 6 6 6 5 4 4 5 4 4 3 4 4 3 3 3 3 1 2 3 3 5 3 2 2 2 2 2 2 2 2 3 4 4 4 3
8 7 7 6 6 5 6 8 7 7 7 8 8 8 7 7 8 8 7 7 7 7 8 7 7 7 7 8 7 7 6 6 6 6 6 6 7 6 6 7 6 5 5 5 4 4 3 4 4 3 3 3 3 3 4 2 1 3 5 3 4 3 2 2 2 3 2 2 3 2 2 4 4 3
7 8 8 8 7 6 7 7 8 8 8 8 8 8 9 8 8 8 7 6 7 8 7 7 7 7 8 6 6 7 7 7 7 7 7 6 6 7 6 6 6 4 5 5 3 3 3 3 4 3 3 4 4 3 4 5 4 3 3 2 1 3 2 3 3 2 2 2 2 1 3 3 3 3
5 6 7 7 7 6 6 7 7 8 8 8 8 8 9 9 9 8 7 7 7 8 8 8 8 7 6 6 6 6 6 7 7 6 6 6 6 6 6 6 6 6 6 6 5 4 3 3 4 4 4 3 1 1 2 2 2 2 2 2 2 1 2 3 3 2 3 2 1 2 2 1 1 1
5 6 6 7 7 7 6 6 7 7 7 7 8 7 8 8 8 8 7 8 8 8 8 7 7 7 6 6 6 7 7 6 6 6 6 6 6 6 7 7 5 6 7 6 5 4 4 2 3 6 6 4 3 3 4 2 2 2 3 2 2 1 3 4 4 3 3 2 2 2 1 0 0 1
6 6 6 6 7 6 6 7 7 7 7 7 7 8 7 7 7 9 9 8 7 7 7 6 6 6 6 6 6 6 7 7 7 6 6 6 6 6 7 7 7 6 6 7 7 5 3 3 5 5 4 4 4 4 4 4 3 2 2 1 2 3 2 1 6 5 3 3 2 2 1 1 2 1
5 5 5 5 6 6 5 6 6 6 6 6 6 7 7 7 7 8 6 6 6 5 5 6 6 6 5 5 5 5 6 7 7 7 7 7 7 8 7 7 6 7 6 4 3 4 4 3 4 4 4 3 3 3 4 4 2 2 2 3 3 2 2 4 5 4 3 2 3 2 1 1 1 3
5 6 5 6 6 6 6 6 6 6 6 6 6 5 5 6 6 5 6 6 5 5 5 6 6 6 6 5 5 5 5 6 7 7 8 8 7 6 6 6 5 5 4 5 5 4 3 3 3 4 5 4 3 4 4 2 3 3 3 2 2 2 2 3 4 5 5 5 2 3 3 2 2 2
4 5 5 6 6 5 5 5 5 5 5 5 6 5 5 5 6 5 5 5 5 5 5 5 5 5 5 5 6 6 4 4 5 6 5 5 5 5 6 6 6 6 5 5 6 5 4 4 3 2 3 3 3 4 3 3 2 3 3 3 3 3 4 4 4 4 3 3 5 4 2 2 3 5
Wind_Direction
180 168 189 219 263 246 208 216 215 208 204 199 186 178 176 166 152 287 313 314 291 319 171 335 58 42 50 46 42 43 53 32 35 48 55 52 42 57 60 58 29 360 49 66 18 201 203 220 263 272 291 220 186 180 164 152 142 136 130 122 118 114 107 98 89 64 83 95 97 97 96 95 94 93
186 207 219 229 256 247 212 225 219 204 204 197 194 191 183 168 184 189 231 288 223 255 276 220 330 4 31 46 61 60 43 35 43 54 52 49 53 71 65 44 8 288 247 214 204 187 192 159 360 2 338 292 205 183 165 155 147 137 130 123 116 116 112 107 118 150 123 110 102 100 98 96 95 94
188 201 244 227 250 240 240 240 235 221 207 214 197 199 181 196 192 164 151 223 271 189 300 181 154 324 54 39 57 60 53 42 53 62 62 65 71 61 52 29 11 353 307 255 215 205 213 163 128 270 288 277 233 178 161 152 142 134 127 116 113 116 122 130 130 122 121 112 105 99 97 96 96 96
200 212 233 234 232 233 230 244 242 238 230 210 204 192 190 198 186 156 168 188 250 197 234 260 324 35 111 62 58 61 58 60 59 73 71 74 56 44 49 31 12 6 350 258 243 60 154 138 166 201 241 266 227 172 151 143 136 124 111 102 95 92 100 109 115 114 112 111 104 100 97 96 96 96
222 219 231 241 239 219 230 238 239 244 237 217 210 190 195 200 185 178 168 198 249 268 202 232 213 156 188 105 58 77 65 60 65 74 77 66 54 45 38 35 19 14 18 18 28 113 82 53 342 201 237 271 259 158 135 113 99 95 97 101 112 113 109 107 106 105 103 99 97 98 99 97 96 97
219 218 230 246 248 212 226 241 244 238 235 210 206 204 202 211 195 191 178 207 218 262 180 207 164 180 351 149 48 72 67 66 73 75 75 74 66 56 51 44 40 42 45 48 50 51 90 139 285 9 83 90 96 93 92 89 90 91 87 96 79 78 96 111 110 101 92 90 87 85 89 95 96 98
205 217 226 242 242 231 232 234 242 230 226 208 210 217 207 217 208 188 199 174 214 237 267 208 209 203 94 80 92 80 82 88 89 82 72 74 75 66 62 62 59 49 61 56 54 59 67 80 88 89 91 89 87 85 77 77 77 82 77 67 66 60 55 49 47 59 54 53 62 69 85 89 94 99
207 215 225 239 240 234 233 240 242 234 220 208 211 219 215 212 215 192 191 209 215 214 239 207 192 132 182 109 89 108 102 110 98 103 98 86 87 86 70 68 69 56 64 65 63 64 65 57 56 75 89 91 92 96 102 101 98 93 86 80 68 65 64 58 57 50 45 40 43 42 48 63 85 101
213 217 221 234 231 223 232 242 241 228 220 206 200 219 205 208 209 199 200 204 209 212 226 226 146 137 131 107 112 130 137 113 110 112 108 113 116 96 84 79 69 66 64 67 72 72 71 71 71 71 70 73 84 97 99 96 92 83 74 73 70 57 46 46 47 44 47 45 50 51 54 55 56 63
219 220 222 228 227 222 221 238 236 224 224 204 207 211 208 210 202 200 192 191 193 209 224 219 198 176 191 154 150 142 145 145 139 125 123 133 119 108 86 62 55 53 54 52 57 63 67 70 72 75 76 72 67 77 86 83 85 92 97 94 87 84 67 53 51 55 58 59 53 53 54 67 72 71
222 223 225 225 223 223 222 232 235 227 222 212 217 207 211 206 219 243 223 191 186 201 215 206 217 213 197 180 177 135 116 134 163 162 155 143 122 99 113 101 78 77 79 75 73 80 86 85 83 78 79 84 91 92 97 101 101 97 94 88 88 88 80 70 64 67 76 87 73 62 53 75 85 83
222 224 226 230 227 227 228 227 235 221 228 215 227 213 203 202 204 230 227 178 181 194 212 217 218 224 212 188 139 140 141 147 173 189 175 168 146 125 90 96 122 108 98 90 71 64 71 73 76 83 93 107 117 112 97 95 92 83 78 86 88 84 72 74 71 65 74 76 73 71 71 76 88 93
223 227 229 231 229 231 236 236 236 229 217 199 225 217 96 38 10 353 335 284 265 242 218 226 222 223 219 215 186 186 201 207 206 177 177 177 132 124 118 109 103 112 112 103 85 70 78 89 87 95 94 94 91 88 93 87 83 83 86 86 89 88 83 78 89 115 97 96 100 104 102 99 85 74
221 227 225 235 240 243 246 249 248 244 231 219 221 134 116 191 210 225 246 243 241 232 220 221 210 231 236 226 211 213 211 181 148 156 168 166 134 120 116 119 118 134 111 98 83 72 79 100 96 86 89 89 88 85 68 74 85 75 72 83 82 79 78 82 89 97 115 133 134 117 87 74 76 84
230 228 228 231 247 252 257 257 256 254 245 224 224 151 176 187 189 207 211 227 206 215 231 224 213 234 235 224 212 217 185 184 178 177 177 163 145 153 152 150 131 156 141 116 119 126 134 96 101 93 85 88 87 85 79 78 74 76 82 77 72 72 74 77 80 80 83 89 96 96 92 94 99 105
233 240 237 232 229 238 238 244 253 256 256 243 229 171 189 192 201 202 202 210 199 199 213 219 223 225 232 218 196 206 193 189 172 170 170 177 184 182 190 154 168 166 176 133 124 115 98 99 101 94 84 85 80 73 83 81 79 79 77 74 67 68 72 71 68 68 74 92 115 122 113 106 110 114
231 234 240 243 234 235 246 248 244 243 251 255 238 181 196 207 212 211 217 219 214 176 199 223 237 224 224 211 210 192 193 174 176 171 181 200 208 205 198 145 127 149 158 120 108 103 86 92 96 83 59 69 73 79 68 80 82 75 74 78 82 80 78 76 74 74 78 88 120 119 106 104 106 105
224 226 228 234 243 236 234 240 238 235 243 102 56 41 253 239 232 219 208 216 216 197 199 205 240 243 191 224 196 182 168 167 182 182 202 196 207 195 144 114 132 135 144 123 121 92 83 67 83 74 51 50 58 49 87 95 89 86 90 89 88 85 81 79 77 75 86 97 112 109 106 104 104 103
223 223 223 225 234 240 249 14 7 346 354 96 163 165 234 259 275 239 200 203 201 208 195 225 244 264 237 227 172 174 182 182 165 180 176 176 131 104 100 93 120 124 117 140 125 112 117 85 93 87 102 102 101 110 92 94 99 99 99 94 89 84 82 82 78 78 81 98 110 110 109 110 110 111
224 224 221 224 221 165 146 158 129 118 111 98 102 230 258 271 276 312 16 8 283 204 209 228 230 223 207 186 176 169 164 139 128 112 95 101 116 122 119 128 135 120 105 86 122 115 134 214 108 86 70 78 86 71 89 87 94 97 93 88 85 81 82 85 88 89 94 104 111 113 115 115 115 112
224 220 218 208 195 182 199 186 185 148 127 155 198 210 211 211 240 266 275 58 112 157 150 146 142 151 151 158 159 158 162 156 141 132 137 145 145 136 128 128 136 109 100 25 120 118 115 159 121 121 120 121 109 89 75 90 85 86 81 79 77 81 83 86 94 99 103 109 112 116 117 118 115 113
224 222 215 200 196 208 219 216 189 151 163 183 195 214 210 213 220 229 222 199 115 114 116 121 124 122 128 130 143 166 174 158 156 154 166 163 159 151 140 134 124 102 76 117 149 100 132 149 152 126 117 93 59 80 107 118 111 100 86 75 77 83 84 86 97 110 112 114 120 122 124 124 125 122
221 219 222 210 198 212 226 217 195 147 155 192 204 208 201 216 227 227 186 188 159 155 144 127 119 88 111 144 168 180 178 169 179 204 149 154 159 141 135 126 125 108 262 194 229 112 162 146 168 139 131 112 63 22 136 124 87 115 114 97 82 84 88 81 89 113 122 127 130 133 135 138 131 122
223 222 214 224 212 212 223 202 126 154 212 207 210 204 213 218 233 189 172 195 163 160 150 125 85 84 47 79 145 147 165 166 125 130 152 162 152 140 144 155 155 153 159 184 201 135 153 164 157 179 106 142 157 163 129 108 87 118 112 105 103 92 101 92 75 79 121 142 141 141 143 146 140 127
223 221 220 216 215 209 206 175 177 190 204 210 205 206 217 221 222 140 159 173 171 147 130 109 94 82 55 49 41 54 59 60 99 99 117 122 130 138 144 139 131 115 138 164 185 138 148 168 154 152 118 83 113 127 108 93 53 90 107 109 106 91 95 92 101 98 86 105 117 116 118 131 145 142
220 222 217 218 214 207 191 195 197 199 203 208 210 211 216 200 137 160 163 148 129 126 121 121 128 99 88 76 73 66 42 17 52 75 81 79 66 40 70 140 143 135 149 159 179 157 135 159 164 154 120 126 125 121 133 108 63 62 86 82 83 79 73 96 92 85 98 127 137 142 123 113 81 70
217 217 215 217 209 194 193 200 204 203 204 203 210 218 200 157 155 145 158 142 134 142 150 142 121 115 125 133 136 133 112 79 56 69 85 85 86 84 75 58 48 104 125 146 168 152 148 128 153 156 141 132 131 127 122 134 130 124 96 80 80 72 67 91 90 85 84 99 110 109 110 99 94 87
212 208 207 210 207 194 193 200 206 209 208 206 213 213 164 155 153 152 148 152 159 156 150 140 132 137 152 132 133 143 138 115 104 89 86 84 86 90 77 73 78 70 76 85 114 147 143 134 148 146 144 148 146 150 132 99 123 133 116 97 85 77 71 82 91 92 87 103 125 137 137 136 132 122
212 208 203 198 193 191 185 192 201 219 229 232 227 188 165 162 158 164 160 158 164 156 159 143 128 126 125 103 106 106 114 107 93 85 76 79 78 88 87 76 68 62 68 60 63 80 126 145 138 128 123 120 122 114 127 135 139 142 138 128 107 78 66 63 83 102 109 110 121 135 136 136 142 136
207 199 182 165 154 142 136 136 161 184 192 191 189 178 172 173 169 162 157 158 160 169 133 135 137 131 122 115 117 110 100 100 107 117 111 105 103 115 99 80 58 54 55 60 59 61 85 102 116 118 103 88 108 128 134 132 136 147 144 123 120 110 69 75 90 105 124 123 124 130 123 104 119 145
119 123 141 146 141 120 129 129 131 135 136 135 145 147 174 136 166 181 181 174 171 159 149 136 121 115 117 119 122 119 119 110 116 121 122 122 125 104 87 90 79 62 44 49 59 64 71 91 105 119 111 102 96 109 132 132 136 137 124 131 146 134 145 122 107 105 122 124 123 118 125 138 150 172
150 143 129 117 109 118 120 121 122 126 129 130 132 153 161 130 128 112 116 111 102 116 122 118 119 121 131 129 121 118 119 125 138 147 136 127 118 112 109 88 79 89 74 56 52 50 62 56 72 77 109 132 131 128 94 114 127 132 134 140 117 107 135 147 136 124 120 131 136 153 166 192 202 185
127 130 128 108 127 141 144 144 146 136 128 131 139 129 112 138 138 135 133 140 145 143 136 135 138 139 136 128 129 127 124 130 131 126 116 102 109 84 87 102 113 107 101 84 72 56 55 66 63 71 67 51 73 125 132 116 103 129 142 139 137 130 135 122 138 133 133 130 135 164 200 222 235 228
137 135 156 154 149 143 150 162 142 134 126 115 128 136 147 140 140 135 124 119 121 122 128 136 137 136 135 133 137 135 125 117 110 118 119 117 112 110 108 107 102 97 101 105 100 98 89 79 80 71 72 74 70 43 23 117 134 152 136 139 138 144 144 157 177 170 189 164 167 184 202 235 234 212
152 155 151 142 147 152 154 154 149 145 142 137 137 143 144 143 140 138 136 138 138 139 138 139 136 138 136 136 139 135 134 127 120 112 101 108 110 117 122 115 120 121 118 113 114 119 112 113 105 95 85 81 69 52 42 31 142 132 135 130 131 149 161 172 174 175 164 125 166 213 231 243 256 248
146 157 147 146 145 150 163 152 142 145 146 143 141 143 142 141 142 141 148 154 147 140 139 142 143 137 136 134 135 133 130 125 121 119 117 114 113 108 107 114 122 123 120 122 127 131 124 125 129 127 135 135 124 129 101 18 32 160 152 172 173 198 183 170 130 135 151 172 169 213 241 247 245 224
140 138 141 144 150 155 151 136 136 140 139 138 140 142 141 142 143 138 134 137 134 134 138 141 138 137 133 128 124 124 127 127 124 122 120 123 120 124 120 121 126 128 127 127 130 137 137 130 134 131 133 143 165 157 126 92 17 326 184 167 181 178 167 150 177 205 219 215 200 215 243 263 273 266
128 125 125 131 138 138 135 133 127 130 133 135 135 130 127 127 126 131 138 142 137 134 138 140 135 136 137 139 135 132 130 124 120 121 129 132 132 133 133 134 137 139 133 136 143 146 150 146 148 146 147 160 164 155 168 167 187 209 212 195 181 159 157 157 196 228 219 176 233 229 216 246 251 270
126 131 134 135 130 137 139 137 134 135 138 136 136 136 133 130 133 137 145 143 140 138 138 136 142 141 139 138 135 137 136 136 132 133 137 141 137 135 134 135 131 139 137 141 149 145 154 155 157 157 157 156 174 190 177 168 199 170 143 184 172 146 172 194 221 226 237 245 216 186 244 258 307 303
106 116 119 122 128 128 132 133 132 132 132 131 129 133 135 138 140 143 141 141 140 140 142 144 139 137 137 139 140 134 132 134 137 139 143 142 143 143 145 149 146 148 151 153 161 166 172 173 165 169 174 152 76 46 108 94 67 84 129 173 293 277 193 191 227 258 268 250 185 227 249 244 192 86
106 106 111 118 118 123 126 122 122 122 122 125 127 127 130 136 139 141 143 146 144 145 143 144 146 148 140 142 148 147 143 138 139 144 144 143 146 151 147 144 148 158 160 165 165 168 185 167 108 100 99 103 129 131 117 166 197 155 163 152 121 301 266 244 244 223 233 153 207 250 248 181 89 99
110 110 110 110 113 118 120 122 123 122 125 128 130 131 130 134 139 137 140 136 137 141 139 143 148 147 147 153 155 152 148 149 152 156 157 154 146 145 154 163 160 170 164 168 180 170 109 113 120 113 112 120 129 158 189 199 202 173 125 126 136 115 121 283 239 233 243 200 194 202 179 172 176 193
98 98 96 101 105 111 116 118 121 119 117 119 120 128 132 131 137 140 140 140 143 138 140 142 146 148 150 154 155 156 153 155 158 159 161 163 159 161 169 176 172 169 173 149 109 112 124 117 119 127 127 140 165 186 200 201 187 120 152 157 153 106 86 64 67 136 175 229 269 291 308 315 285 291
99 102 101 109 115 114 115 120 119 120 124 124 122 123 125 131 136 141 143 145 149 149 143 144 148 151 154 154 154 159 165 163 161 160 166 173 174 167 156 153 156 151 137 129 135 131 129 138 136 141 150 177 172 188 207 191 200 178 186 173 123 157 147 110 91 90 101 80 37 244 287 356 2 28
97 100 112 116 116 114 110 114 119 120 118 121 127 129 130 133 139 141 146 148 151 141 143 146 150 151 151 153 157 168 166 146 159 160 156 153 156 151 152 156 155 153 152 151 145 144 148 145 136 146 172 178 178 203 201 211 197 178 190 199 180 173 168 162 158 150 125 112 50 49 75 144 139 122